User: anonymous   Login
Location: Unspecified
(0.0000°N, 0.0000°E)
Time: 18:24:13
(UTC+00:00)
Language:

STARLINK-32384 - Orbit

View from above orbital plane
View from above orbital plane
View from above satellite
View from above satellite

Ground track
Ground track

The orbit is defined by the following mean orbital elements,

1 62146U          26144.96258375 +.00000000 +00000-0 +48158-3 0 00003
2 62146  43.0042  87.4713 0001750 286.6550  73.4110 15.27592373    09
Epoch (UTC): 24 May 2026 23:06:07
Eccentricity: 0.0001750
inclination: 43.0042°
perigee height: 482 km
apogee height: 484 km
right ascension of ascending node: 87.4713°
argument of perigee: 286.6550°
revolutions per day: 15.27592373
mean anomaly at epoch: 73.4110°

The dashed part of the orbit path shows where the satellite is in the earth's shadow,  

DLR